Temperature
22 21 21 20 20 19 19 19 19 19 19 19 19 18 18 18 18 18 18 18 18 18 18 18 18 18 18 18 18 18 17 17 18 18 18 18 18 18 17 17 17 17 17
23 22 21 21 20 20 19 19 19 19 19 19 19 18 18 18 18 18 18 18 18 18 18 18 18 18 18 18 18 18 17 18 17 18 18 19 18 17 18 17 17 17 17
24 23 22 21 21 20 20 20 19 19 19 19 19 18 18 18 18 18 18 18 18 18 18 18 18 18 18 18 18 17 17 17 17 18 18 19 19 18 18 17 17 17 17
24 23 22 22 21 20 20 20 20 20 19 19 19 18 18 19 18 18 18 18 18 18 18 18 18 18 18 18 17 17 17 17 17 17 17 18 18 18 19 18 18 17 17
24 23 23 22 21 21 20 20 20 20 20 19 19 19 18 18 18 18 18 18 18 18 18 18 18 18 18 18 17 17 17 17 17 17 17 17 17 18 18 18 18 17 17
24 23 22 22 21 21 20 20 20 20 20 19 19 19 19 18 18 18 18 18 18 18 18 18 18 18 18 17 17 17 17 17 17 17 17 17 18 18 18 18 18 18 17
23 23 22 22 21 21 20 20 20 20 20 19 19 19 19 18 18 18 18 18 18 18 18 18 18 17 17 17 17 17 17 17 17 17 17 17 17 17 17 18 18 18 17
24 23 22 22 21 21 20 20 20 20 19 19 19 19 19 18 18 18 18 18 18 18 18 18 18 18 17 17 17 17 17 17 17 17 17 17 17 17 17 17 18 18 18
24 23 23 22 21 21 20 20 20 20 19 19 19 19 19 19 18 18 18 18 18 18 18 18 17 17 17 17 17 17 17 17 17 17 17 16 17 17 17 17 17 18 18
24 23 22 22 21 21 20 20 19 20 19 19 19 19 19 19 18 18 18 18 18 18 18 17 17 17 17 17 17 17 17 17 17 17 17 17 17 17 16 16 17 17 17
23 23 22 21 21 21 20 20 19 19 19 19 19 19 19 19 18 18 18 18 18 18 18 17 17 17 17 17 17 17 17 17 16 16 16 16 17 16 16 16 16 17 17
23 22 22 21 21 20 20 20 19 19 19 19 19 19 18 18 18 18 18 18 18 17 17 17 17 17 17 17 17 17 16 16 16 16 16 16 16 16 16 16 16 16 16
23 22 22 21 20 20 20 19 19 19 19 18 18 18 18 18 18 18 17 17 17 17 17 17 17 17 17 17 16 16 16 16 16 16 16 16 16 16 16 16 16 16 16
22 22 21 21 20 20 19 19 19 19 18 18 18 18 18 18 17 17 17 17 17 17 17 17 16 16 16 16 16 16 16 16 16 16 16 16 16 16 16 16 16 16 16
22 21 21 20 20 19 19 19 19 18 18 18 18 18 17 17 17 17 17 17 17 16 16 16 16 16 16 16 16 16 16 16 15 16 16 16 16 16 16 16 16 16 16
22 21 20 20 19 19 19 18 18 18 18 18 18 17 17 17 17 17 17 16 16 16 16 16 16 16 16 16 16 16 15 15 15 15 15 15 15 16 16 16 16 16 16
21 20 20 19 19 19 18 18 18 18 18 18 17 17 17 17 17 17 16 16 16 16 16 16 16 16 16 16 16 16 15 15 15 15 15 15 15 15 15 15 15 16 16
20 20 20 19 19 19 19 18 18 17 17 17 17 17 17 17 17 16 16 16 16 16 16 16 15 15 15 16 16 16 15 15 15 15 15 15 15 15 15 15 15 15 15
19 19 19 19 19 18 18 18 17 17 17 17 17 16 16 16 16 16 16 16 15 15 15 15 15 15 15 15 15 15 15 15 15 15 15 15 15 15 15 15 15 15 15
19 19 19 18 18 18 17 17 17 17 17 16 16 16 16 16 16 16 16 15 15 15 15 15 15 15 15 15 15 15 15 15 15 15 15 15 15 15 15 15 14 14 15
18 18 18 18 17 17 17 17 17 17 16 16 16 16 16 16 15 15 15 15 15 15 15 15 15 15 15 15 15 15 15 14 14 15 15 15 15 15 15 15 14 14 14
18 17 17 17 17 17 16 16 16 16 16 16 16 15 15 15 15 15 15 15 15 15 15 15 15 15 15 15 15 15 15 15 14 14 14 15 15 15 15 15 14 14 14
17 17 17 17 17 16 16 16 16 16 16 15 15 15 15 15 15 15 15 15 15 15 15 15 15 15 15 15 14 14 14 14 14 14 14 14 14 14 14 14 14 14 14
17 17 16 16 16 16 16 15 15 15 15 15 15 15 14 14 14 14 14 14 14 14 14 14 14 14 14 14 14 14 14 14 14 14 14 14 14 14 14 14 14 14 14
16 16 16 16 15 15 15 15 15 15 15 15 14 14 14 14 14 14 14 14 14 14 14 14 13 13 14 14 13 13 13 13 13 13 13 13 13 13 13 13 13 13 13
16 16 16 15 15 15 15 15 15 15 14 14 14 14 14 14 14 14 14 14 14 13 13 13 13 13 13 13 13 13 13 13 13 13 12 13 13 13 13 13 13 13 13
Wind_Speed
4 4 3 3 3 2 2 2 1 1 1 0 1 0 0 1 1 1 1 1 2 1 2 1 1 2 1 1 1 1 1 1 1 1 2 2 2 1 2 2 2 2 3
5 4 4 3 3 3 3 3 2 2 2 1 1 1 2 1 1 1 1 1 1 2 2 1 2 1 1 1 1 1 1 1 1 1 1 2 3 2 2 2 2 2 2
5 5 5 4 4 4 3 2 2 2 2 2 1 1 1 1 1 1 1 1 2 2 2 2 2 2 2 1 2 2 2 1 1 0 1 1 1 2 3 3 2 2 2
5 5 5 4 4 3 3 3 2 2 2 2 1 2 1 2 2 2 2 1 2 2 2 2 2 3 2 1 2 2 2 2 2 1 1 1 1 2 2 3 3 3 2
5 5 4 4 3 3 3 3 2 2 2 2 2 2 2 2 2 2 2 2 2 2 2 2 2 2 2 2 2 1 2 2 2 1 1 1 1 2 2 1 2 2 2
5 4 4 3 3 3 3 3 2 2 2 2 2 2 2 2 3 3 3 2 1 1 2 2 2 3 2 2 3 3 3 2 2 2 2 2 2 2 2 2 2 2 2
5 5 4 4 3 3 3 2 3 2 1 1 2 2 3 3 3 4 2 3 2 2 2 2 2 2 2 3 3 4 3 3 3 3 3 3 3 2 2 2 2 2 2
5 5 5 5 4 3 3 3 3 2 1 1 1 1 3 3 3 3 3 3 3 2 2 2 2 3 3 4 3 3 3 3 4 4 4 3 3 3 3 3 2 3 3
5 5 5 5 4 4 4 3 3 2 1 0 1 0 1 3 3 3 3 3 3 2 2 2 2 2 3 3 3 2 3 3 4 4 5 4 3 3 3 3 4 4 4
5 5 5 5 5 4 4 3 3 2 1 1 1 0 1 1 2 3 3 3 3 3 3 2 2 2 3 3 3 3 3 3 3 3 4 4 4 3 3 4 4 4 4
5 5 5 5 4 4 4 3 2 2 1 0 0 1 1 1 2 2 2 3 3 3 2 3 3 3 3 3 3 4 4 4 4 4 4 5 4 3 3 3 3 4 4
5 5 5 5 4 3 3 3 2 2 1 0 1 1 2 2 3 3 3 3 3 3 3 3 3 3 3 3 4 4 4 4 5 5 4 5 4 4 4 3 4 3 4
4 5 4 4 3 3 2 2 2 1 1 1 1 2 2 3 3 4 3 3 3 4 3 3 3 3 3 4 4 4 4 5 5 4 4 4 4 5 4 5 4 4 4
4 4 3 3 2 2 2 2 2 1 1 2 2 2 3 3 3 4 4 4 4 4 4 4 4 4 4 4 4 4 4 5 5 4 4 5 5 5 5 5 5 5 5
4 3 3 2 2 2 1 1 1 1 1 2 3 3 3 4 4 4 4 4 4 5 4 5 4 5 5 4 3 4 5 5 5 5 5 5 5 5 5 5 5 5 5
3 3 3 2 2 2 1 1 1 1 1 2 3 3 3 3 4 4 4 4 5 5 5 5 5 5 4 1 2 5 6 5 6 6 6 6 6 6 7 7 6 6 7
2 2 2 2 2 2 1 1 1 1 1 2 3 3 3 3 4 5 4 4 5 5 5 6 6 6 5 3 4 6 7 7 6 6 6 6 5 5 6 7 9 9 9
1 1 1 1 1 1 1 1 1 1 2 2 3 4 4 4 4 5 5 5 5 5 6 6 6 6 5 5 6 7 8 7 7 7 7 7 6 6 6 7 7 8 8
1 1 1 1 1 0 0 0 1 1 2 3 3 4 4 5 5 5 6 5 5 6 6 6 6 6 5 5 5 6 6 6 7 7 7 8 8 4 5 8 8 8 8
2 1 2 2 2 1 1 0 1 2 3 3 3 4 4 5 5 6 6 6 6 6 7 6 6 6 6 5 6 7 6 6 7 7 8 8 8 5 6 8 8 8 8
2 2 3 2 2 2 2 1 2 2 3 4 3 4 4 5 5 5 5 5 6 6 6 6 6 6 6 5 6 7 7 7 7 7 7 6 8 8 9 9 9 9 8
2 3 3 2 2 2 2 2 3 3 3 4 4 4 4 5 4 5 5 5 5 6 6 6 6 5 5 5 5 7 9 9 8 8 7 5 5 8 10 9 9 9 9
2 3 3 2 2 2 2 3 4 4 4 4 4 4 5 5 5 5 5 4 4 5 5 5 5 5 4 3 5 7 8 9 8 7 6 6 6 8 9 11 11 9 8
2 2 2 2 3 3 3 3 4 4 4 4 5 5 5 5 4 5 5 5 4 5 5 5 5 5 4 4 4 4 4 6 6 6 5 7 8 8 8 6 7 7 7
1 1 2 2 3 3 3 4 4 4 4 5 5 5 4 4 4 4 4 5 4 4 5 6 6 6 5 4 5 5 5 5 4 5 5 5 5 5 5 5 5 6 6
1 1 2 2 3 4 4 4 4 4 5 5 5 5 4 4 4 4 4 2 4 3 4 5 6 5 5 6 6 6 6 6 5 4 4 5 5 6 6 5 5 5 6
Wind_Direction
160 160 166 164 160 157 167 169 185 162 205 220 274 270 344 312 296 282 320 302 305 291 268 286 256 270 256 284 257 234 192 185 203 195 167 157 158 168 169 181 169 162 162
170 168 175 178 179 175 185 189 190 196 215 191 245 286 314 308 312 323 350 312 299 281 234 238 264 275 246 229 237 218 232 262 218 251 215 188 178 182 166 172 177 174 161
180 176 177 185 190 189 194 192 196 203 225 234 225 242 242 273 307 306 303 307 308 290 282 254 262 264 258 225 232 218 222 238 212 255 277 249 218 175 162 173 172 167 163
177 177 175 181 192 193 184 182 183 199 219 226 239 259 294 316 321 309 329 326 322 308 288 264 259 260 267 245 241 207 231 227 220 198 272 319 327 253 188 174 169 168 176
173 176 176 175 185 188 185 178 171 196 216 229 215 242 266 291 307 310 323 313 310 299 290 269 261 261 260 249 251 237 241 231 230 231 218 211 224 266 267 199 175 173 190
161 164 160 158 171 176 181 171 160 179 212 230 237 246 274 295 308 306 312 307 312 304 300 262 250 252 261 244 227 227 217 235 238 245 237 233 251 244 250 236 199 201 212
162 160 161 162 162 164 163 154 146 157 190 224 259 272 280 279 283 292 298 309 321 320 308 280 254 260 256 252 233 218 229 224 220 228 239 245 262 272 266 252 232 230 227
160 162 164 162 160 156 153 149 140 140 147 186 260 286 292 288 293 298 305 310 309 313 308 281 263 261 258 253 233 224 220 216 219 225 238 244 242 247 247 251 251 244 236
162 161 159 158 158 156 155 156 147 143 136 133 191 275 310 314 318 309 292 299 303 300 300 283 269 260 259 257 245 233 230 222 224 227 221 235 236 240 249 246 247 257 255
157 155 153 155 155 155 149 149 144 143 144 126 307 75 338 325 319 309 324 319 313 313 300 296 286 274 256 235 238 236 231 229 230 238 241 242 242 233 243 245 247 257 263
155 154 155 157 155 152 147 149 160 174 172 160 325 332 319 318 308 304 307 305 306 309 302 293 285 276 263 248 240 248 235 233 234 237 233 236 250 242 239 241 240 245 253
150 152 154 156 159 159 160 168 189 201 207 239 278 296 302 305 300 301 300 297 296 294 293 286 273 264 260 253 248 251 247 241 240 239 240 242 236 235 241 242 240 242 246
154 154 156 162 169 175 181 192 213 233 273 288 284 297 298 301 302 304 298 294 288 290 291 283 276 271 267 257 256 256 255 249 247 245 241 243 240 236 239 240 242 244 244
161 166 169 173 177 186 191 214 246 264 290 301 289 287 291 294 297 296 289 286 282 281 284 280 276 271 264 258 258 258 258 255 255 253 245 242 238 236 239 234 236 244 248
168 175 185 178 180 179 188 213 248 283 306 289 289 294 291 290 290 290 283 280 278 276 276 274 271 269 260 255 263 259 252 252 251 248 245 242 238 244 244 248 237 237 243
181 189 192 191 194 191 193 214 247 281 283 286 296 300 293 293 296 292 286 279 276 278 274 269 267 265 266 311 289 275 263 254 250 250 248 241 231 229 224 242 249 246 243
189 194 204 200 201 206 210 218 249 273 285 297 300 294 291 294 293 293 291 282 277 274 272 271 267 264 259 226 245 261 264 255 250 250 253 254 245 234 243 234 230 238 241
170 170 196 204 208 222 213 236 269 288 294 299 302 301 297 291 289 288 288 284 280 277 274 272 270 267 256 215 228 250 252 255 251 249 250 254 256 251 251 252 245 245 242
100 93 116 90 45 23 8 204 276 293 301 309 306 306 299 294 290 287 289 287 282 278 276 274 273 271 263 223 223 242 252 249 250 251 250 252 253 238 243 250 251 253 253
68 54 67 74 57 17 8 318 287 303 309 312 306 300 293 291 289 289 287 285 279 273 275 274 272 270 269 234 222 234 255 253 253 246 243 235 245 239 220 242 250 255 259
66 55 57 59 40 10 353 324 321 321 320 316 309 302 296 287 286 290 291 289 283 282 280 279 274 267 266 245 221 229 255 262 259 258 254 242 202 223 226 240 250 255 264
62 49 45 43 31 12 345 332 332 330 325 314 307 302 299 294 298 297 295 293 290 284 281 278 277 273 263 253 230 224 243 266 264 266 267 262 202 219 228 237 250 256 256
65 50 41 40 30 16 355 339 338 333 322 311 303 297 295 294 295 290 291 289 286 289 293 291 288 290 293 268 219 224 242 251 255 267 284 287 248 238 236 231 237 242 245
77 53 35 21 9 4 359 343 331 322 313 309 307 300 294 292 291 289 289 292 299 299 299 298 298 297 296 300 296 276 260 244 251 269 266 244 239 243 260 256 235 239 246
52 23 11 2 353 351 346 341 336 325 316 311 306 299 297 300 296 289 291 291 298 303 296 300 300 299 299 324 335 306 294 294 299 295 278 275 270 260 254 254 255 251 247
349 336 340 339 339 339 340 341 332 322 314 307 305 301 298 301 297 299 298 306 288 292 273 283 290 301 316 325 316 306 305 306 301 283 273 276 276 275 276 275 268 257 253
Height
1536 1537 1537 1538 1538 1537 1536 1536 1536 1536 1535 1536 1536 1536 1536 1536 1536 1535 1534 1533 1533 1532 1531 1532 1531 1531 1531 1531 1531 1531 1531 1532 1532 1533 1533 1533 1533 1533 1533 1534 1534 1534 1534
1535 1536 1536 1537 1537 1537 1536 1536 1536 1536 1536 1536 1535 1536 1536 1536 1535 1535 1533 1533 1532 1532 1532 1530 1531 1530 1530 1530 1530 1530 1530 1531 1531 1532 1532 1532 1534 1533 1533 1533 1533 1533 1534
1533 1534 1535 1536 1536 1536 1536 1536 1535 1535 1535 1535 1536 1536 1536 1536 1535 1534 1534 1533 1532 1531 1530 1530 1529 1529 1529 1529 1529 1529 1529 1530 1530 1531 1532 1531 1531 1531 1532 1531 1532 1532 1532
1531 1532 1534 1535 1535 1536 1535 1535 1535 1535 1535 1535 1535 1535 1536 1535 1535 1534 1533 1532 1531 1530 1530 1529 1528 1528 1528 1528 1528 1528 1528 1528 1529 1529 1529 1530 1530 1530 1530 1530 1530 1531 1531
1529 1531 1532 1534 1534 1535 1535 1534 1534 1534 1534 1534 1534 1534 1535 1535 1534 1533 1532 1531 1531 1529 1528 1528 1527 1526 1527 1526 1526 1526 1526 1527 1528 1528 1529 1529 1529 1529 1529 1529 1530 1530 1530
1528 1529 1531 1532 1533 1534 1534 1534 1533 1533 1533 1533 1533 1533 1533 1533 1533 1532 1531 1531 1530 1529 1527 1527 1526 1525 1525 1525 1524 1524 1525 1525 1525 1526 1527 1527 1528 1528 1528 1527 1528 1528 1529
1526 1528 1530 1531 1532 1533 1533 1534 1533 1533 1533 1532 1532 1532 1532 1532 1531 1531 1530 1530 1529 1528 1526 1526 1525 1524 1523 1523 1522 1522 1523 1524 1523 1524 1525 1526 1526 1527 1527 1527 1527 1527 1528
1525 1527 1529 1530 1531 1532 1532 1532 1532 1532 1532 1532 1531 1531 1531 1531 1531 1530 1529 1529 1528 1527 1525 1524 1523 1523 1522 1522 1521 1521 1521 1522 1522 1523 1523 1524 1524 1525 1525 1526 1526 1526 1527
1524 1526 1527 1529 1530 1531 1531 1531 1531 1531 1531 1531 1531 1530 1530 1529 1529 1528 1527 1527 1526 1525 1524 1523 1522 1521 1521 1520 1520 1520 1520 1520 1521 1521 1521 1522 1522 1523 1523 1524 1524 1525 1524
1522 1524 1526 1527 1529 1530 1530 1530 1530 1530 1530 1530 1530 1530 1529 1528 1527 1527 1526 1525 1524 1523 1522 1521 1521 1520 1519 1518 1518 1519 1518 1519 1519 1519 1519 1519 1520 1521 1521 1522 1522 1522 1523
1521 1523 1525 1526 1528 1529 1529 1529 1529 1529 1529 1529 1529 1528 1528 1527 1526 1526 1525 1523 1522 1521 1520 1520 1519 1518 1517 1517 1517 1517 1517 1517 1517 1517 1517 1517 1517 1518 1519 1519 1519 1519 1520
1521 1522 1524 1526 1527 1528 1528 1528 1528 1529 1529 1528 1528 1527 1526 1526 1525 1524 1523 1522 1521 1520 1519 1517 1516 1516 1515 1515 1515 1515 1515 1514 1514 1514 1514 1514 1515 1515 1516 1516 1516 1517 1517
1521 1522 1523 1525 1525 1526 1527 1527 1528 1528 1528 1527 1526 1526 1525 1524 1523 1522 1521 1520 1518 1517 1517 1515 1514 1513 1513 1513 1512 1512 1512 1512 1512 1512 1512 1512 1512 1512 1513 1513 1514 1514 1514
1520 1521 1522 1523 1524 1525 1525 1525 1526 1526 1526 1525 1525 1524 1523 1522 1521 1519 1518 1517 1516 1515 1514 1513 1512 1512 1511 1510 1510 1509 1509 1509 1509 1509 1509 1509 1509 1509 1510 1510 1510 1511 1511
1519 1520 1521 1522 1523 1523 1523 1524 1524 1524 1523 1523 1523 1522 1521 1519 1518 1517 1516 1515 1514 1513 1512 1511 1510 1509 1509 1508 1507 1507 1507 1506 1506 1506 1506 1506 1506 1506 1507 1507 1507 1508 1508
1518 1519 1520 1520 1521 1521 1522 1522 1522 1522 1521 1521 1520 1519 1518 1517 1516 1515 1513 1512 1511 1510 1509 1508 1507 1507 1507 1506 1505 1504 1504 1503 1503 1503 1503 1503 1503 1503 1503 1503 1504 1504 1504
1517 1518 1519 1519 1519 1520 1520 1520 1520 1520 1519 1518 1517 1516 1515 1514 1513 1512 1511 1509 1508 1507 1506 1505 1504 1503 1503 1502 1501 1501 1500 1500 1499 1499 1499 1500 1500 1499 1499 1499 1499 1500 1500
1516 1517 1518 1518 1518 1518 1518 1518 1518 1518 1517 1516 1515 1514 1513 1511 1510 1509 1508 1506 1505 1504 1503 1502 1501 1500 1499 1498 1498 1497 1497 1496 1496 1496 1496 1496 1496 1496 1495 1495 1496 1495 1496
1516 1516 1516 1517 1517 1517 1516 1515 1516 1516 1515 1514 1512 1511 1510 1509 1508 1506 1505 1503 1502 1501 1500 1499 1497 1496 1495 1494 1494 1493 1493 1493 1492 1492 1492 1492 1492 1491 1491 1492 1491 1491 1491
1515 1515 1515 1515 1515 1515 1515 1514 1513 1513 1512 1511 1510 1509 1507 1506 1505 1503 1502 1501 1499 1498 1497 1495 1494 1493 1491 1491 1490 1490 1490 1489 1489 1489 1488 1487 1487 1487 1487 1487 1487 1486 1486
1514 1514 1514 1514 1514 1513 1513 1512 1511 1510 1510 1509 1507 1506 1505 1503 1502 1501 1499 1497 1496 1495 1493 1492 1490 1489 1488 1487 1486 1486 1485 1485 1485 1485 1485 1484 1483 1482 1482 1482 1482 1481 1482
1513 1513 1513 1513 1512 1512 1511 1510 1509 1508 1507 1506 1505 1503 1502 1501 1500 1498 1496 1494 1493 1491 1490 1488 1487 1486 1484 1483 1482 1482 1481 1481 1480 1480 1480 1479 1478 1477 1477 1477 1476 1476 1477
1512 1512 1512 1512 1511 1510 1509 1508 1507 1506 1505 1503 1502 1500 1499 1498 1496 1495 1494 1492 1490 1489 1487 1486 1484 1483 1481 1479 1478 1477 1476 1476 1475 1475 1474 1473 1473 1472 1471 1471 1471 1471 1471
1511 1511 1511 1511 1510 1509 1507 1506 1505 1504 1502 1501 1499 1498 1496 1495 1493 1492 1491 1490 1488 1486 1484 1483 1481 1479 1478 1476 1475 1474 1473 1472 1471 1470 1469 1468 1467 1467 1466 1466 1465 1465 1465
1510 1510 1509 1509 1508 1507 1506 1504 1503 1501 1500 1498 1497 1495 1494 1493 1491 1489 1488 1486 1485 1483 1482 1480 1479 1477 1475 1473 1472 1470 1469 1469 1467 1466 1465 1464 1464 1463 1462 1462 1461 1461 1461
1508 1508 1508 1507 1506 1505 1504 1502 1500 1499 1497 1496 1494 1493 1492 1490 1489 1487 1485 1483 1481 1480 1478 1476 1475 1473 1472 1469 1468 1466 1465 1464 1463 1462 1461 1460 1460 1459 1458 1458 1457 1457 1456